Thailine 5 — 9WFF5 — position and weather

sailwx.info

Track history (hours):
 
Tides and Currents Weather Stations Pressure Air Temp Water Temp Dewpoint Dewpoint Depression Visibility Wind Speed Wind Dir Waves Ship Positions

Thailine 5

Last reported at 2017-Feb-20 05:05 UTC. Time now 2017-Feb-22 22:17 UTC.
Position N 33°35' E 132°12'.

; draft 5 m.

Type: Cargo ship. MMSI: 533399000.

Date/timePositionNaut miles runAvg speedWind from/ knotsBaromVisibWave heightAir tempDewpointWater temp
2017-Feb-20 05:05N 33°35' E 132°12'610.6
2017-Feb-20 04:32N 33°39' E 132°17'9 9.4
2017-Feb-20 03:33N 33°45' E 132°25'9 8.9
2017-Feb-20 02:33N 33°51' E 132°33'10 9.6
2017-Feb-20 01:33N 33°57' E 132°42'12211.0
2017-Feb-19 14:31N 34°37' E 135°01'9 9.7
2017-Feb-19 13:33N 34°28' E 135°04'1211.7
2017-Feb-19 12:30N 34°17' E 134°59'1111.3
2017-Feb-19 11:33N 34°06' E 134°59'  
2017-Feb-14 10:32N 35°04' E 139°46'1411.4
2017-Feb-14 09:18N 35°18' E 139°44'7 9.7
2017-Feb-14 08:34N 35°25' E 139°45'1110.8
2017-Feb-14 07:34N 35°31' E 139°56'9 8.9
2017-Feb-14 06:31N 35°37' E 140°05'0 0.0
2017-Feb-13 22:31N 35°37' E 140°05'4 0.1
2017-Feb-12 06:13N 35°35' E 140°01'0 0.0
2017-Feb-12 05:04N 35°35' E 140°01'0 0.0
2017-Feb-12 03:22N 35°35' E 140°01'0 0.0
2017-Feb-12 02:07N 35°35' E 140°01'0 0.0
2017-Feb-11 23:31N 35°35' E 140°01'0 0.0
2017-Feb-11 22:10N 35°35' E 140°01'0 0.0
2017-Feb-11 19:31N 35°35' E 140°01'0 0.0
2017-Feb-11 18:31N 35°35' E 140°01'0 0.0
2017-Feb-11 17:31N 35°35' E 140°01'0 0.0
2017-Feb-11 16:22N 35°35' E 140°01'0 0.0
2017-Feb-11 15:28N 35°35' E 140°01'0 0.0
2017-Feb-11 14:31N 35°35' E 140°01'0 0.0
2017-Feb-11 13:28N 35°35' E 140°01'0 0.0
2017-Feb-11 12:22N 35°35' E 140°01'0 0.1
2017-Feb-11 11:25N 35°35' E 140°01'0 0.0
2017-Feb-11 09:13N 35°35' E 140°01'0 0.0
2017-Feb-11 08:31N 35°35' E 140°01'0 0.1
2017-Feb-11 07:31N 35°35' E 140°01'0 0.0
2017-Feb-11 06:16N 35°35' E 140°01'0 0.1
2017-Feb-11 05:25N 35°35' E 140°01'0 0.0
2017-Feb-11 03:28N 35°35' E 140°01'6 7.0
2017-Feb-11 02:33N 35°31' E 139°55'1211.6
2017-Feb-11 01:33N 35°22' E 139°45'1010.0
2017-Feb-11 00:33N 35°12' E 139°47'  
Track history (hours):
 
Tides and Currents Weather Stations Pressure Air Temp Water Temp Dewpoint Dewpoint Depression Visibility Wind Speed Wind Dir Waves Ship Positions

Thailine 5

Last reported at 2017-Feb-20 05:05 UTC. Time now 2017-Feb-22 22:17 UTC.
Position N 33°35' E 132°12'.

; draft 5 m.

Type: Cargo ship. MMSI: 533399000.

Date/timePositionNaut miles runAvg speedWind from/ knotsBaromVisibWave heightAir tempDewpointWater temp
2017-Feb-20 05:05N 33°35' E 132°12'610.6
2017-Feb-20 04:32N 33°39' E 132°17'9 9.4
2017-Feb-20 03:33N 33°45' E 132°25'9 8.9
2017-Feb-20 02:33N 33°51' E 132°33'10 9.6
2017-Feb-20 01:33N 33°57' E 132°42'12211.0
2017-Feb-19 14:31N 34°37' E 135°01'9 9.7
2017-Feb-19 13:33N 34°28' E 135°04'1211.7
2017-Feb-19 12:30N 34°17' E 134°59'1111.3
2017-Feb-19 11:33N 34°06' E 134°59'  
2017-Feb-14 10:32N 35°04' E 139°46'1411.4
2017-Feb-14 09:18N 35°18' E 139°44'7 9.7
2017-Feb-14 08:34N 35°25' E 139°45'1110.8
2017-Feb-14 07:34N 35°31' E 139°56'9 8.9
2017-Feb-14 06:31N 35°37' E 140°05'0 0.0
2017-Feb-13 22:31N 35°37' E 140°05'4 0.1
2017-Feb-12 06:13N 35°35' E 140°01'0 0.0
2017-Feb-12 05:04N 35°35' E 140°01'0 0.0
2017-Feb-12 03:22N 35°35' E 140°01'0 0.0
2017-Feb-12 02:07N 35°35' E 140°01'0 0.0
2017-Feb-11 23:31N 35°35' E 140°01'0 0.0
2017-Feb-11 22:10N 35°35' E 140°01'0 0.0
2017-Feb-11 19:31N 35°35' E 140°01'0 0.0
2017-Feb-11 18:31N 35°35' E 140°01'0 0.0
2017-Feb-11 17:31N 35°35' E 140°01'0 0.0
2017-Feb-11 16:22N 35°35' E 140°01'0 0.0
2017-Feb-11 15:28N 35°35' E 140°01'0 0.0
2017-Feb-11 14:31N 35°35' E 140°01'0 0.0
2017-Feb-11 13:28N 35°35' E 140°01'0 0.0
2017-Feb-11 12:22N 35°35' E 140°01'0 0.1
2017-Feb-11 11:25N 35°35' E 140°01'0 0.0
2017-Feb-11 09:13N 35°35' E 140°01'0 0.0
2017-Feb-11 08:31N 35°35' E 140°01'0 0.1
2017-Feb-11 07:31N 35°35' E 140°01'0 0.0
2017-Feb-11 06:16N 35°35' E 140°01'0 0.1
2017-Feb-11 05:25N 35°35' E 140°01'0 0.0
2017-Feb-11 03:28N 35°35' E 140°01'6 7.0
2017-Feb-11 02:33N 35°31' E 139°55'1211.6
2017-Feb-11 01:33N 35°22' E 139°45'1010.0
2017-Feb-11 00:33N 35°12' E 139°47'  

Dump ship's entire track history